This demonstration page uses our WeatherBlox Daily Observations layout. Learn more.

Hourly Observations for June 13, 2020

Temp ( °F °C ) Dew Point ( °F °C ) Humidity (%) Winds ( mph kmh ) Pressure ( in mb ) Visibility ( mi km ) Precip ( " mm )
12:15 am 00:15 Clear 65 18.3 56 13.1 72 72 SE 7 11 30.1 1019 10 16.0934 0 0
12:35 am 00:35 Clear 64 17.7 55 12.8 73 73 SE 7 11 30.11 1020 10 16.0934 0 0
12:55 am 00:55 Clear 66 18.7 56 13.3 71 71 SE 8 13 30.09 1019 10 16.0934 0 0
1:15 am 01:15 Clear 65 18.2 56 13.2 73 73 SE 7 11 30.09 1019 10 16.0934 0 0
1:35 am 01:35 Clear 64 17.9 56 13.3 75 75 SSE 7 11 30.09 1019 10 16.0934 0 0
1:55 am 01:55 Clear 64 17.9 56 13.6 76 76 SSE 7 11 30.08 1019 10 16.0934 0 0
2:15 am 02:15 Clear 64 18 56 13.6 76 76 SSE 6 9 30.08 1019 10 16.0934 0 0
2:35 am 02:35 Clear 65 18.3 57 13.7 75 75 SSE 7 11 30.08 1019 10 16.0934 0 0
2:55 am 02:55 Clear 64 17.5 56 13.4 77 77 SSE 7 11 30.08 1019 10 16.0934 0 0
3:15 am 03:15 Clear 62 16.9 56 13.4 80 80 SSE 6 9 30.08 1019 10 16.0934 0 0
3:35 am 03:35 Clear 62 16.6 56 13.5 82 82 SE 6 9 30.08 1018 10 16.0934 0 0
3:55 am 03:55 Clear 62 16.7 56 13.5 82 82 SSE 5 7 30.07 1018 10 16.0934 0 0
4:15 am 04:15 Clear 59 15 54 12.3 84 84 E 5 7 30.08 1019 10 16.0934 0 0
4:35 am 04:35 Clear 58 14.5 55 12.7 89 89 Calm 30.08 1019 10 16.0934 0 0
4:55 am 04:55 Clear 57 14 54 12.4 90 90 E 6 9 30.08 1019 10 16.0934 0 0
5:15 am 05:15 Clear 60 15.5 56 13.5 88 88 ESE 7 11 30.05 1018 10 16.0934 0 0
5:35 am 05:35 Clear 61 15.9 57 13.7 87 87 E 9 15 30.05 1018 10 16.0934 0 0
5:55 am 05:55 Clear 60 15.6 57 13.7 89 89 E 9 15 30.05 1018 10 16.0934 0 0
6:15 am 06:15 Sunny 60 15.7 57 13.7 88 88 E 8 13 30.05 1018 10 16.0934 0 0
6:35 am 06:35 Sunny 61 16 57 14 88 88 E 9 15 30.04 1017 10 16.0934 0 0
6:55 am 06:55 Sunny 61 16.3 58 14.2 87 87 E 10 17 30.04 1017 10 16.0934 0 0
7:15 am 07:15 Sunny 63 17.1 58 14.7 86 86 E 12 19 30.03 1017 10 16.0934 0 0
7:35 am 07:35 Sunny 65 18.1 60 15.3 84 84 ESE 9 15 30.02 1017 10 16.0934 0 0
7:55 am 07:55 Sunny 66 18.9 60 15.3 80 80 ESE 10 17 30.02 1016 10 16.0934 0 0
8:15 am 08:15 Sunny 68 19.9 60 15.7 77 77 E 10 17 30.01 1016 10 16.0934 0 0
8:35 am 08:35 Sunny 70 21 60 15.6 71 71 E 12 19 30 1016 10 16.0934 0 0
8:55 am 08:55 Sunny 73 22.5 59 15.2 63 63 ESE 12 19 29.98 1015 10 16.0934 0 0
9:15 am 09:15 Sunny 75 23.9 57 13.9 54 54 SE 13 20 29.96 1014 10 16.0934 0 0
9:35 am 09:35 Sunny 77 24.8 56 13.3 49 49 SE 15 24 29.95 1014 10 16.0934 0 0
9:55 am 09:55 Sunny 78 25.5 55 13 46 46 SE 14 22 29.94 1014 10 16.0934 0 0
10:15 am 10:15 Sunny 78 25.8 52 11 40 40 SE 16 26 29.94 1014 10 16.0934 0 0
10:35 am 10:35 Sunny 79 26.1 53 11.8 41 41 SE 12 19 29.92 1013 10 16.0934 0 0
10:55 am 10:55 Sunny 80 26.5 54 12 41 41 SE 15 24 29.9 1013 10 16.0934 0 0
11:15 am 11:15 Sunny 80 26.7 54 12.4 41 41 SSE 15 24 29.9 1013 10 16.0934 0 0
11:35 am 11:35 Sunny 81 27.3 55 12.5 40 40 SE 14 22 29.9 1012 10 16.0934 0 0
11:55 am 11:55 Sunny 82 28 53 11.8 37 37 SE 15 24 29.89 1012 10 16.0934 0 0
12:15 pm 12:15 Sunny 83 28.5 53 11.9 36 36 SSE 14 22 29.89 1012 10 16.0934 0 0
12:35 pm 12:35 Sunny 83 28.6 54 12 36 36 SE 13 20 29.88 1012 10 16.0934 0 0
12:55 pm 12:55 Sunny 84 28.8 54 12 35 35 SE 17 28 29.87 1011 10 16.0934 0 0
1:15 pm 13:15 Sunny 85 29.4 54 12.3 35 35 ESE 17 28 29.85 1011 10 16.0934 0 0
1:35 pm 13:35 Sunny 85 29.6 53 11.7 33 33 SE 15 24 29.84 1011 10 16.0934 0 0
1:55 pm 13:55 Sunny 86 30.1 54 12 33 33 SE 18 30 29.84 1010 10 16.0934 0 0
2:15 pm 14:15 Sunny 87 30.6 54 12.4 33 33 SE 21 33 29.81 1010 10 16.0934 0 0
2:35 pm 14:35 Sunny 88 30.9 54 12.1 31 31 SE 17 28 29.81 1010 10 16.0934 0 0
2:55 pm 14:55 Sunny 89 31.5 51 10.6 28 28 SE 17 28 29.81 1009 10 16.0934 0 0
3:15 pm 15:15 Sunny 89 31.7 51 10.7 27 27 SSE 14 22 29.79 1009 10 16.0934 0 0
3:35 pm 15:35 Sunny 90 32.1 53 11.6 28 28 SSE 18 30 29.78 1009 10 16.0934 0 0
3:55 pm 15:55 Sunny 90 32.4 51 10.5 26 26 SSE 16 26 29.78 1008 10 16.0934 0 0
4:15 pm 16:15 Sunny 91 32.5 52 11.1 27 27 SSE 15 24 29.77 1008 10 16.0934 0 0
4:35 pm 16:35 Sunny 91 32.7 53 11.4 27 27 SSE 20 31 29.76 1008 10 16.0934 0 0
4:55 pm 16:55 Sunny 91 32.7 53 11.4 27 27 SSE 14 22 29.76 1008 10 16.0934 0 0
5:15 pm 17:15 Sunny 92 33.1 52 11.3 26 26 SSE 17 28 29.74 1007 10 16.0934 0 0
5:35 pm 17:35 Sunny 92 33.3 52 11.1 26 26 SSE 16 26 29.72 1007 10 16.0934 0 0
5:55 pm 17:55 Sunny 92 33.5 53 11.7 26 26 SSE 9 15 29.72 1006 10 16.0934 0 0
6:15 pm 18:15 Sunny 92 33.5 52 11.1 25 25 SE 17 28 29.71 1006 10 16.0934 0 0
6:35 pm 18:35 Sunny 92 33.6 53 11.9 27 27 SSE 13 20 29.7 1006 10 16.0934 0 0
6:55 pm 18:55 Sunny 92 33.5 51 10.6 25 25 SSE 8 13 29.7 1006 10 16.0934 0 0
7:15 pm 19:15 Sunny 91 33 53 11.5 27 27 SE 13 20 29.7 1006 10 16.0934 0 0
7:35 pm 19:35 Sunny 91 32.6 54 12.1 29 29 SE 12 19 29.7 1006 10 16.0934 0 0
7:55 pm 19:55 Sunny 89 31.9 54 12.2 30 30 SE 13 20 29.7 1006 10 16.0934 0 0
8:15 pm 20:15 Sunny 88 31.1 54 12.3 32 32 SE 14 22 29.71 1006 10 16.0934 0 0
8:35 pm 20:35 Sunny 86 29.9 54 12.1 33 33 SE 12 19 29.72 1006 10 16.0934 0 0
8:55 pm 20:55 Sunny 83 28.6 54 12 36 36 ESE 12 19 29.73 1007 10 16.0934 0 0
9:15 pm 21:15 Clear 81 27.4 53 11.7 38 38 ESE 12 19 29.75 1007 10 16.0934 0 0
9:35 pm 21:35 Clear 80 26.4 53 11.9 41 41 ESE 10 17 29.76 1008 10 16.0934 0 0
9:55 pm 21:55 Clear 78 25.8 53 11.7 41 41 SE 12 19 29.77 1008 10 16.0934 0 0
10:15 pm 22:15 Clear 78 25.6 53 11.5 41 41 SE 15 24 29.77 1008 10 16.0934 0 0
10:35 pm 22:35 Clear 77 25 53 11.5 43 43 SE 13 20 29.79 1009 10 16.0934 0 0
10:55 pm 22:55 Clear 77 25 53 11.6 43 43 SE 15 24 29.8 1009 10 16.0934 0 0
11:15 pm 23:15 Clear 77 25.2 52 11.3 42 42 SE 15 24 29.8 1009 10 16.0934 0 0
11:35 pm 23:35 Clear 77 25.2 52 10.9 41 41 SE 17 28 29.8 1009 10 16.0934 0 0
11:55 pm 23:55 Clear 77 25 51 10.3 40 40 SSE 14 22 29.8 1009 10 16.0934 0 0

Powered by AerisWeather